Список аэропортов
Фактическая погода:

09 декабря, 17:50
Температура: 0°C (-6.3*)
Ветер: западный 8 м/с
Давление: *734 мм
неб. 390 м
неб. облачность
450 м
слаб. ливневый снег
Время (МСК)Темп. СВетерВлажностьДавлениеОблачностьОсадки
15:00+1ЮЗ, 7 м/с89%974 гПаоблачно
16:000ЮЗ, 7 м/с90%975 гПаоблачносл. снег
17:000ЮЗ, 7 м/с89%977 гПаоблачно
18:000ЮЗ, 6 м/с87%979 гПаоблачно
19:00-0ЮЗ, 6 м/с86%980 гПаоблачно
20:00-0ЮЗ, 6 м/с85%982 гПаоблачно
21:00-0З, 5 м/с85%984 гПаоблачно
22:00-0З, 5 м/с84%985 гПаоблачно
23:00-0З, 5 м/с84%986 гПаоблачно
10 декабря
00:00-1З, 4 м/с86%987 гПаоблачно
01:00-2З, 3 м/с88%989 гПаоблачно
02:00-2З, 3 м/с85%990 гПаоблачно
03:00-2З, 4 м/с82%991 гПаоблачно
04:00-2З, 4 м/с82%992 гПаоблачно
05:00-2З, 4 м/с82%993 гПаоблачно
06:00-2З, 4 м/с81%994 гПаоблачно
07:00-2З, 3 м/с81%995 гПаоблачно
08:00-2З, 4 м/с81%996 гПаоблачно
09:00-3З, 4 м/с84%997 гПаоблачно
10:00-3З, 4 м/с86%999 гПас прояснениями
11:00-4З, 3 м/с87%1000 гПаясно
12:00-5З, 3 м/с91%1001 гПаясно
13:00-5З, 4 м/с90%1002 гПаясно
14:00-5З, 4 м/с90%1003 гПаясно
15:00-6З, 3 м/с91%1005 гПаясно
16:00-7З, 3 м/с90%1006 гПаясно
17:00-8З, 2 м/с91%1007 гПаясно
18:00-8З, 2 м/с91%1008 гПаясно
19:00-9ЮЗ, 2 м/с92%1009 гПаясно
20:00-9ЮЗ, 2 м/с91%1010 гПаясно
21:00-10ЮЗ, 2 м/с91%1011 гПаясно
22:00-10ЮЗ, 2 м/с91%1012 гПамалооблачно
23:00-10ЮЗ, 2 м/с91%1012 гПамалооблачно
11 декабря
00:00-10ЮЗ, 2 м/с91%1013 гПаоблачно
01:00-10ЮЗ, 1 м/с91%1014 гПас прояснениями
02:00-11ЮЗ, 1 м/с91%1014 гПамалооблачно
03:00-12ЮЗ, 1 м/с90%1015 гПамалооблачно
04:00-12Ю, 1 м/с89%1015 гПас прояснениями
05:00-13ЮВ, 1 м/с90%1014 гПаоблачно
06:00-13ЮВ, 1 м/с89%1015 гПаоблачно
07:00-13В, 1 м/с89%1015 гПаоблачно
08:00-13В, 2 м/с88%1015 гПаоблачно
09:00-13ЮВ, 2 м/с89%1014 гПаоблачно
10:00-12ЮВ, 2 м/с90%1014 гПаоблачно
11:00-10ЮВ, 2 м/с90%1014 гПаоблачно
12:00-9ЮВ, 3 м/с89%1013 гПаоблачно
13:00-7ЮВ, 4 м/с90%1013 гПаоблачно
14:00-6ЮВ, 4 м/с92%1011 гПаоблачно
15:00-4ЮВ, 5 м/с89%1011 гПаоблачно